Regional Weather Roundup
Issued by NWS

Home | Current Version | Previous Version | Graphics & Text | Print | Product List | Glossary On
Versions: 1 2 3 4 5 6 7 8 9 10 11 12 13 14 15 16 17 18 19 20 21 22 23 24 25 26 27 28 29 30 31 32 33 34 35 36 37 38 39 40 41 42 43 44 45 46 47 48 49 50
000
ASUS44 KMEG 310610
RWRTN
TENNESSEE HOURLY STATE WEATHER ROUNDUP
NATIONAL WEATHER SERVICE MEMPHIS TN
100 AM CDT SUN AUG 31 2014

TNZ002-004-019-021-049-052-054-088>092-310700-
WEST TENNESSEE

CITY           SKY/WX    TMP DP  RH WIND       PRES   REMARKS
MEMPHIS INTL   RAIN      74  71  91 S10       29.99S
NWS MEMPHIS      N/A     72 N/A N/A MISG        N/A
JACKSON        CLOUDY    72  69  90 S6        30.02R
DYERSBURG      CLOUDY    72  63  73 S5        30.01R
UNION CITY     PTCLDY    72  70  94 S3        29.99R
PARIS          CLEAR     70  70 100 S8        30.02S
HUNTINGDON     CLOUDY    70  69  96 S8        30.02S
LEXINGTON      PTCLDY    72  70  94 S6        30.03S
SAVANNAH       MOCLDY    72  72 100 S5        30.05F
$$

TNZ008-025-027-028-033-062-065-066-310700-
NORTH MIDDLE TENNESSEE

CITY           SKY/WX    TMP DP  RH WIND       PRES   REMARKS
NASHVILLE      MOCLDY    71  70  96 S6        30.07F
DICKSON          N/A     72  70  94 S6        30.05S
PORTLAND       CLOUDY    70  70 100 S9        30.07R
CLARKSVILLE    MOCLDY    73  71  93 S6        30.02R
LEBANON        FAIR      71  69  93 E3        30.06F
SMYRNA         CLOUDY    72  72 100 S8        30.08F
MURFREESBORO   FAIR      71  70  97 S7        30.08F
COOKEVILLE     CLEAR     70  70 100 S3        30.11F
GALLATIN       MOCLDY    71  71 100 CALM      30.08R
CROSSVILLE     FAIR      73  66  78 S6        30.17S
$$

TNZ061-075-076-078-094-096-097-310700-
SOUTH MIDDLE TENNESSEE

CITY           SKY/WX    TMP DP  RH WIND       PRES   REMARKS
LEWISBURG      CLOUDY    71  69  93 S6        30.09R
FAYETTEVILLE   CLEAR     68  66  94 S6        30.12S
TULLAHOMA      PTCLDY    70  68  94 S3        30.13S
WINCHESTER     CLEAR     70  70 100 SE3       30.13R
MCMINNVILLE    CLEAR     70  70 100 CALM      30.12F
COLUMBIA         N/A     72  72 100 S5        30.06S
SHELBYVILLE    CLEAR     72  72 100 SE3       30.11S
$$

TNZ017-018-042-046-047-310700-
NORTHEAST TENNESSEE

CITY           SKY/WX    TMP DP  RH WIND       PRES   REMARKS
TRI CITIES     CLOUDY    73  66  78 CALM      30.16R
ELIZABETHTON   PTCLDY    70  66  88 CALM      30.17S
$$

TNZ012-013-036-069-073-074-310700-
CENTRAL EAST TENNESSEE

CITY           SKY/WX    TMP DP  RH WIND       PRES   REMARKS
KNOXVILLE      CLOUDY    70  68  93 SW5       30.14S
OAK RIDGE      CLOUDY    72  70  93 SW3       30.16S
GATLINBURG     PTCLDY    70  66  88 S3        30.16F
MORRISTOWN     MOCLDY    70  70 100 S3        30.18F
$$

TNZ083-085-099-310700-
SOUTHEAST TENNESSEE

CITY           SKY/WX    TMP DP  RH WIND       PRES   REMARKS
CHATTANOOGA    FAIR      72  69  90 CALM      30.14S
$$

SKY/WX REPORTED AS FAIR MEANS FEW OR NO CLOUDS BELOW
12 THOUSAND FEET.




USA.gov is the U.S. government's official web portal to all federal, state and local government web resources and services.